Regional Weather Roundup
Issued by NWS Wakefield, VA

Home | Current Version | Previous Version | Text Only | Print | Product List | Glossary Off
Versions: 1 2 3 4 5 6 7 8 9 10 11 12 13 14 15 16 17 18 19 20 21 22 23 24 25 26 27

000
ASUS41 KAKQ 252215
RWRAKQ

REGIONAL WEATHER ROUNDUP
NATIONAL WEATHER SERVICE WAKEFIELD VA
500 PM EST SUN FEB 25 2018

Note: "fair" indicates few or no clouds below 12,000 feet with no
significant weather and/or obstructions to visibility. * = Denotes
station may not report precipitation (e.g., rain,snow,etc.),
thunder or fog.

VAZ042-051-052>054-056-252300-
NORTHERN VIRGINIA

CITY           SKY/WX    TMP DP  RH WIND       PRES   REMARKS
WASH NATIONAL  CLOUDY    52  51  97 S7        29.95F
DULLES         CLOUDY    52  52 100 S3        29.95F
FORT BELVOIR   CLOUDY    52  51  96 CALM      29.95F
QUANTICO       FAIR      51  51 100 SE6       29.95F
FREDERICKSBRG* FAIR      58  58 100 CALM      29.95F
STAFFORD*      FAIR      56  56 100 CALM      29.98F
WARRENTON      FAIR      55  52  88 CALM      29.95S
CULPEPER*      FAIR      55  53  92 CALM      29.96S
MANASSAS*      FAIR      53  52  96 CALM      29.96F
LEESBURG*      FAIR      50  50 100 CALM      29.96S
WINCHESTER     FAIR      52  52 100 N7        29.97R
FRONT ROYAL*   CLOUDY    54  54 100 CALM      29.94R
LURAY*         FAIR      61  54  77 SW7       29.94S
$$

VAZ048-049-060>072-079>083-252300-
CENTRAL AND SOUTH CENTRAL VIRGINIA

CITY           SKY/WX    TMP DP  RH WIND       PRES   REMARKS
RICHMOND       CLOUDY    67  55  65 S9        29.95F
CHESTERFIELD*  FAIR      68  55  63 S3        29.96F
PETERSBURG*    CLOUDY    69  52  54 CALM      29.97R
HANOVER        FAIR      60  57  89 N5        29.98F
TAPPAHANNOCK*  FAIR      60  57  91 SE3       29.96F
QUINTON*       MOCLDY    68  57  69 MISG      29.96S
CHARLOTTSVILLE FAIR      58  55  90 W3        29.95S
GORDONSVILLE*  FAIR      56  56 100 W3        29.95F
ORANGE*        FAIR      54  54 100 CALM      29.95F
LOUISA*        PTSUNNY   56  55  95 S3        29.99S
BUMPASS*       NOT AVBL
FARMVILLE*     FAIR      68  58  68 SW7G17    29.94S
CREWE*         CLOUDY    69  54  58 SW7       29.96F
FORT PICKETT*  CLOUDY    69  52  54 SW12G18   29.96F
CHASE CITY*    CLOUDY    68  53  57 S5        29.99S
CLARKSVILLE*   CLOUDY    68  52  56 SW8       29.99S
SOUTH HILL*    CLOUDY    69  56  62 S8        30.04F
LAWRENCEVILLE* CLOUDY    70  53  53 SW8       29.99S
EMPORIA*       CLOUDY    70  54  56 S5        30.01S
$$

VAZ088>098-252300-
SOUTHEAST VIRGINIA

CITY           SKY/WX    TMP DP  RH WIND       PRES   REMARKS
NORFOLK        FAIR      76  49  38 W10G17    29.97R
VIRGINIA BEACH MOCLDY    75  49  39 SW14      29.96R
NORFOLK NAVAL  CLOUDY    74  50  42 W6        30.00R
WEST POINT*    FAIR      67  57  69 CALM      29.99R
SALUDA*        FAIR      57  56  94 CALM      29.97F
NEWPORT NEWS   FAIR      71  52  50 SW10      29.97S
LANGLEY AFB    FAIR      72  53  52 SW9       29.97S
FORT EUSTIS    FAIR      70  54  56 S3        29.95S
WILLIAMSBURG*  FAIR      73  55  53 CALM      29.98F
HR EXEC AP*    CLOUDY    74  52  46 SW12      29.99R
FRANKLIN*      CLOUDY    71  54  53 SW6       29.99F
US460-WAKEFLD  FAIR      70  56  61 SW8       29.96F
$$

VAZ020-022-025-037-045-252300-
WEST CENTRAL AND SOUTHWEST VIRGINIA

CITY           SKY/WX    TMP DP  RH WIND       PRES   REMARKS
STAUNTON*      FAIR      59  47  64 SW10      29.98R
WAYNESBORO*    FAIR      60  48  64 SW6       29.97R
HOT SPRINGS VA PTSUNNY   50  45  81 W14       30.00F
LYNCHBURG      PTSUNNY   63  55  75 SW7G20    29.96F
DANVILLE       CLOUDY    65  57  75 SW10      30.01R
SOUTH BOSTON*  CLOUDY    67  52  59 SW7       30.00R
MARTINSVILLE   CLOUDY    63  55  76 CALM      30.02F
ROANOKE        CLOUDY    63  52  67 N9        30.00R
BLACKSBURG     CLOUDY    59  49  70 CALM      29.99F
DUBLIN*        CLOUDY    59  50  72 CALM      30.00F
MARION*        PTSUNNY   56  46  70 W10       30.02S
HILLSVILLE*    CLOUDY    61  43  52 S8        29.98F
RICHLANDS*     FAIR      52  45  75 W5        30.06R
WISE*          PTSUNNY   52  46  82 W3        30.05F
ABINGDON*      FAIR      56  49  75 N7        30.05R
$$

MDZ021>025-VAZ099-100-252300-
SOUTHERN MARYLAND AND THE DELMARVA PENINSULA

CITY           SKY/WX    TMP DP  RH WIND       PRES   REMARKS
PATUXENT RIVER CLOUDY    56  55  97 SE6       29.94F
BAY BRIDGE APT CLOUDY    48  48 100 SE5       29.97R FOG
LEONARDTOWN    FAIR      55  54  94 CALM      29.97F
DOVER          MOCLDY    52  51  94 CALM      29.96S
GEORGETOWN     FAIR      58  53  84 W3        29.98R
EASTON         CLOUDY    50  48  93 CALM      30.00R
CAMBRIDGE      PTCLDY    52  50  93 N3        29.96F
SALISBURY      FAIR      60  55  83 CALM      29.96S
OCEAN CITY     FAIR      64  57  78 NW10      29.97R
WALLOPS ISLAND FAIR      66  59  78 MISG      29.96S
ACCOMACK*      FAIR      64  59  82 SW3       29.97F
$$

NCZ012>017-030>032-252300-
NORTH CENTRAL AND EASTERN NORTH CAROLINA

CITY           SKY/WX    TMP DP  RH WIND       PRES   REMARKS
ROANOKE RAPIDS MOCLDY    70  52  52 CALM      30.01S
RALEIGH        CLOUDY    66  55  67 W7        30.05F
ELIZABETH CITY CLOUDY    74  59  59 SW9       30.00R
AHOSKIE*       CLOUDY    69  55  62 CALM      30.01S
EDENTON*       CLOUDY    76  57  51 SW6       30.02S
CURRITUCK*     MOCLDY    73  54  51 SW8       30.00R
KILL DEVIL HLS FAIR      73  54  52 CALM      30.00F
MANTEO         FAIR      70  56  60 S7        30.03S
CAPE HATTERAS  CLOUDY    68  65  90 SW14G23   30.06R
TARBORO*       NOT AVBL
GOLDSBORO      CLOUDY    74  50  42 W7        30.03S
WASHINGTON     PTSUNNY   79  53  41 W3        30.03S
GREENVILLE     FAIR      77  52  41 W6        30.06R
NEW BERN       PTSUNNY   71  68  90 S3        30.05R
WILMINGTON     FAIR      76  62  62 S13       30.04F
$$

VAZ048-252300-
ELSEWHERE

CITY           SKY/WX    TMP DP  RH WIND       PRES   REMARKS
HARRISBURG PA  CLOUDY    48  45  89 SE3       29.95F
BALTIMORE      CLOUDY    50  50 100 S3        29.94F
ANNAPOLIS      CLOUDY    48  47  96 SE5       29.96S
ANDREWS AFB    CLOUDY    52  52  99 S3          N/A
PHILADELPHIA   CLOUDY    47  45  93 NE8       29.98R
HENDERSON NC   FAIR      66  50  57 SW9       30.01F
GREENSBORO     CLOUDY    64  58  80 SW9       30.03F
ROCKY MOUNT    CLOUDY    70  53  54 SW6       30.04R
$$

VAZ100-252300-
MARINE

STATION/POSITION TIME  TEMP    WIND        PRES    WAVE   SWELL
                       AIR SEA DIR/SP/G            HT/PER HT/PER
                 (UTC) (F)     (DEG/KT/KT) (MB)    (FT/S) (FT/S)
BRANDYWINE LGT   2148          360/ 12/ 13   N/A
CAPE MAY NJ      2148   47 44  350/  4/  6 1014.5R
LEWES DE         2148   45 44   CALM  /  1 1015.0R
15NM E FENWICK I 2150   47 44  110/  4/  4 1014.5F   4/ 6   3/ 6
OCEAN-CITY-INLET 2148   59 43  290/  7/  9 1014.8R
WACHAPREAGUE VA  2148   68 54  260/  3/  4 1015.0R
THOMAS POINT MD  2200   47 43     CALM       N/A
GOOSES REEF MD   2200   45 43  100/  4/  6 1015.5    0
COVE POINT MD    2148   47      70/  3/  7 1014.6F
SOLOMONS ISLAND  2148   53 44  340/  3/  4 1014.4F
BISHOPS HEAD MD  2148   51 51  350/  2/  4 1015.3R
PINEY POINT MD   2148          360/  4/  6   N/A
POTOMAC MD       2200   52 45  220/  2/  6 1015.5    0
CAMBRIDGE MD     2148   51 48              1015.4F
LEWISETTA VA     2148   53 50   10/  6/  8 1014.5R
RAPPAHANNOCK LGT 2148           40/  3/  3 1015.5R
YORK RVR RNG VA  2148   62     270/ 11/ 12 1015.5R
YORKTOWN VA      2148   71 47  220/  7/  9 1014.4R
DOMINION TERM VA 2148   67     270/  7/  8 1015.5R
KIPTOPEKE VA     2148      47  340/  7/ 12   N/A
CAPE HENRY VA    2148   76     220/  8/ 13   N/A
WILLOUBY STN VA  2148   68     250/ 14/ 15 1014.9R
S CRANEY ISL VA  2148   74     250/  6/ 13 1015.1R
CAPE HENRY BUOY  2200      47                N/A     2/ 9
CAPE CHARLES BUO 2151      45                N/A     2/10
64NM E OF VA BCH 2150   55 50  210/ 14/ 16 1015.5F   4/ 7   2/10
DUCK PIER NC     2148   72 45  220/ 11/ 13 1015.6R
44100 DUCK FRF   2145      48                N/A     3/ 9
44056 DUCK FRF   2200      47                N/A     2/ 9
OREGON INLET NC  2148          220/ 16/ 19   N/A
HATTERAS NC      2148   66 62  230/ 12/ 17 1017.9R
DIAMOND SHLS NC  2200   72 71  230/ 17/ 21 1018.2
CAPE LOOKOUT NC  2200          210/ 13/ 17 1018.1R
$$




USA.gov is the U.S. government's official web portal to all federal, state and local government web resources and services.